Flag for Poland Weather past 2 weeks in Elbląg, Poland

Now
47 °F

Passing clouds.


Feels Like: 45 °F
Forecast: 51 / 68 °F
Wind: 5 mph from Northeast

Location: Hel


UV Index: 0 (Low)

Visibility: 8 mi


Pressure: 30.14 "Hg

Humidity: 85%

Dew point: 42 °F

Location of ElblągLocation

Historic Weather in Elbląg

°F

Elbląg temperature yesterday

Maximum temperature yesterday: 57 °F (at 1:00 PM)
Minimum temperature yesterday: 42 °F (at 6:00 AM)
Average temperature yesterday: 48 °F

Past Weeks' High & Low Weather Summary

 TemperatureHumidityPressure
High63 °F (Apr 8, 3:00 PM)99% (Apr 11, 8:00 AM)30.42 "Hg (Apr 11, 8:00 AM)
Low31 °F (Apr 11, 4:00 AM)35% (Apr 16, 5:00 PM)29.55 "Hg (Apr 14, 4:00 PM)
Average45 °F80%29.99 "Hg
* Reported Apr 4 8:00 PM — Apr 19 8:00 PM, Elbląg, Weather by CustomWeather, © 2014

Note: Actual official high and low records may vary slightly from our data, if they occured in-between our weather recording intervals... More about our weather records

Advertising

Historic Weather Conditions — Data for Previous 24 hours

 ConditionsComfort  
Time TempWeatherWind HumidityBarometerVisibility
8:00 PM
Apr 19
47 °FPassing clouds.5 mph84%30.14 "Hg9 mi
7:00 PM49 °FPassing clouds.5 mph81%30.13 "Hg9 mi
6:00 PM51 °FSunny.5 mph77%30.13 "Hg9 mi
5:00 PM53 °FSunny.5 mph73%30.14 "Hg9 mi
4:00 PM54 °FSunny.5 mph72%30.14 "Hg9 mi
3:00 PM56 °FSunny.2 mph69%30.16 "Hg11 mi
2:00 PM55 °FSunny.3 mph67%30.17 "Hg9 mi
1:00 PM58 °FSunny.2 mph66%30.18 "Hg9 mi
12:00 PM56 °FSunny.3 mph68%30.19 "Hg9 mi
11:00 AM54 °FSunny.3 mph73%30.18 "Hg12 mi
10:00 AM53 °FPassing clouds.2 mph73%30.17 "Hg12 mi
9:00 AM52 °FScattered clouds.2 mph76%30.16 "Hg12 mi
8:00 AM51 °FPartly sunny.2 mph82%30.15 "Hg11 mi
7:00 AM46 °FPartly sunny.2 mph91%30.13 "Hg10 mi
6:00 AM44 °FScattered clouds.3 mph91%30.12 "Hg10 mi
5:00 AM45 °FPassing clouds.3 mph89%30.12 "Hg10 mi
4:00 AM44 °FPassing clouds.2 mph88%30.11 "Hg9 mi
3:00 AM46 °FPassing clouds.3 mph85%30.11 "Hg9 mi
2:00 AM47 °FPassing clouds.3 mph84%30.09 "Hg9 mi
1:00 AM45 °FPassing clouds.3 mph89%30.09 "Hg6 mi
12:00 AM45 °FPassing clouds.3 mph88%30.06 "Hg6 mi
10:00 PM
Apr 18
46 °FPassing clouds.3 mph86%30.02 "Hg9 mi
9:00 PM46 °FPassing clouds.3 mph83%30.00 "Hg11 mi
Weather by CustomWeather, © 2014

See weather overview